Barrow, AK

6:10 AM AKDT on September 19, 2017 (GMT -0800)
Wiley Post-Will Rogers Memorial

Weather History for PABR - December, 2013

Change the Weather History Date:

Saturday, December 14, 2013

  Actual Average Record
Temperature  
Mean Temperature -6 °F -7 °F  
Max Temperature 0 °F -1 °F 30 °F (2008)
Min Temperature -11 °F -13 °F -42 °F (1924)
Degree Days  
Heating Degree Days 71 72  
Month to date heating degree days 804 993  
Since 1 July heating degree days 6171 6945  
Cooling Degree Days 0 0  
Month to date cooling degree days 0 0  
Year to date cooling degree days 0 0  
Moisture  
Dew Point -12 °F    
Average Humidity 0    
Maximum Humidity 0    
Minimum Humidity 0    
Precipitation  
Precipitation 0.03 in 0.01 in 0.15 in (1920)
Month to date precipitation 1.02 0.07  
Year to date precipitation 8.24 4.46  
Snow  
Snow 0.30 in 0.20 in 2.50 in (1920)
Month to date snowfall 11.7 1.8  
Since 1 July snowfall 35.6 22.1  
Snow Depth 8.00 in    
Sea Level Pressure  
Sea Level Pressure 29.91 in    
Wind  
Wind Speed 11 mph (NNE)    
Max Wind Speed 18 mph    
Max Gust Speed 24 mph    
Visibility 6 miles    
Events Snow    
T = Trace of Precipitation, MM = Missing Value Source: NWS Daily Summary

Daily Weather History Graph

Daily Weather History Graph

Search for Another Location

Airport or City:

Trip Planner

Search our weather history database for the weather conditions in past years. The results will help you decide how hot, cold, wet, or windy it might be!

Date:

Astronomy

Dec. 31, 1969 Rise Set
Actual Time Sun does not set Sun does not set
Civil Twilight 11:46 AM AKST 2:57 PM AKST
Nautical Twilight 9:39 AM AKST 5:04 PM AKST
Astronomical Twilight 8:12 AM AKST 6:31 PM AKST
Moon 12:54 PM AKST (12/14) 9:44 AM AKST (12/14)
Length of Visible Light 3h 11m
Length of Day
0h 00m
Waxing Gibbous, 94% of the Moon is Illuminated
Dec 14
Waxing Gibbous
Dec 17
Full
Dec 25
Last Quarter
Jan 1
New
Jan 7
First Quarter

Hourly Weather History & Observations

Time (AKST) Temp. Windchill Dew Point Humidity Pressure Visibility Wind Dir Wind Speed Gust Speed Precip Events Conditions
12:53 AM -0.0 °F -19.4 °F -5.1 °F 79% 30.00 in 10.0 mi North 15.0 mph - 0.00 in   Overcast
1:27 AM -0.0 °F -18.7 °F -4.0 °F 83% 29.99 in 9.0 mi North 13.8 mph - N/A   Overcast
1:53 AM -0.0 °F -18.0 °F -6.0 °F 76% 29.99 in 9.0 mi North 12.7 mph - N/A   Overcast
2:53 AM -2.0 °F -20.5 °F -6.0 °F 83% 29.97 in 9.0 mi North 12.7 mph - N/A   Overcast
3:53 AM -2.0 °F -21.9 °F -7.1 °F 79% 29.96 in 8.0 mi North 15.0 mph - N/A   Overcast
4:53 AM -2.9 °F -22.4 °F -8.0 °F 79% 29.94 in 4.0 mi North 13.8 mph - 0.01 in Snow Light Snow
5:53 AM -6.0 °F -24.6 °F -9.9 °F 83% 29.94 in 4.0 mi North 11.5 mph - 0.00 in Snow Light Snow
6:05 AM -6.0 °F -26.3 °F -11.0 °F 79% 29.93 in 7.0 mi North 13.8 mph - 0.00 in Snow Light Snow
6:39 AM -7.1 °F -28.4 °F -11.0 °F 83% 29.92 in 9.0 mi North 15.0 mph - 0.00 in   Overcast
6:53 AM -6.0 °F -26.3 °F -9.9 °F 83% 29.93 in 7.0 mi North 13.8 mph - 0.00 in   Overcast
7:53 AM -7.1 °F -27.6 °F -11.0 °F 83% 29.91 in 3.0 mi NNE 13.8 mph - 0.00 in Snow Light Snow
8:53 AM -7.1 °F -28.4 °F -11.0 °F 83% 29.90 in 2.5 mi NNE 15.0 mph - 0.00 in   Overcast
9:26 AM -7.1 °F -26.8 °F -11.9 °F 79% 29.88 in 1.8 mi North 12.7 mph - 0.00 in Snow Light Snow
9:53 AM -9.0 °F -30.2 °F -13.0 °F 83% 29.89 in 1.8 mi NNE 13.8 mph - 0.00 in Snow Light Snow
10:20 AM -8.0 °F -29.6 °F -13.0 °F 79% 29.89 in 2.0 mi NNE 15.0 mph - 0.00 in Snow Light Snow
10:53 AM -9.0 °F -30.9 °F -13.0 °F 83% 29.89 in 2.0 mi NNE 15.0 mph - 0.00 in Snow Light Snow
11:53 AM -9.0 °F -29.3 °F -14.1 °F 79% 29.89 in 2.5 mi NNE 12.7 mph - 0.01 in Snow Light Snow
12:02 PM -9.0 °F -29.3 °F -14.1 °F 79% 29.89 in 3.0 mi NNE 12.7 mph - 0.00 in Snow Light Snow
12:53 PM -9.0 °F -27.4 °F -14.1 °F 79% 29.90 in 4.0 mi NE 10.4 mph - 0.00 in Snow Light Snow
1:53 PM -9.0 °F -27.4 °F -14.1 °F 79% 29.89 in 5.0 mi NE 10.4 mph - 0.00 in Snow Light Snow
2:53 PM -8.0 °F -23.9 °F -13.0 °F 79% 29.88 in 6.0 mi NNE 8.1 mph - 0.00 in Snow Light Snow
3:53 PM -8.0 °F -23.9 °F -11.9 °F 83% 29.88 in 6.0 mi NNE 8.1 mph - 0.00 in Snow Light Snow
4:53 PM -9.9 °F -21.5 °F -15.0 °F 78% 29.86 in 7.0 mi ENE 4.6 mph - 0.00 in Snow Light Snow
5:53 PM -11.0 °F -20.4 °F -16.1 °F 78% 29.86 in 7.0 mi SE 3.5 mph - 0.01 in Snow Light Snow
6:53 PM -9.9 °F -23.4 °F -15.0 °F 78% 29.86 in 7.0 mi SE 5.8 mph - 0.00 in Snow Light Snow
7:53 PM -9.9 °F -21.5 °F -14.1 °F 82% 29.86 in 7.0 mi SSE 4.6 mph - 0.00 in Snow Light Snow
8:53 PM -9.9 °F -24.9 °F -15.0 °F 78% 29.87 in 6.0 mi South 6.9 mph - 0.00 in Snow Light Snow
9:53 PM -9.9 °F -24.9 °F -16.1 °F 74% 29.86 in 9.0 mi South 6.9 mph - 0.00 in   Overcast
10:53 PM -9.9 °F -27.5 °F -16.1 °F 74% 29.87 in 9.0 mi South 9.2 mph - N/A   Overcast
11:53 PM -9.0 °F -26.4 °F -15.0 °F 75% 29.87 in 10.0 mi South 9.2 mph - N/A   Overcast